New York Downtown Manhattan/w, NY

4:49 AM EDT on October 14, 2019 (GMT -0400)
New York Downtown Manhattan/w

Weather History for KJRB - August, 2019

Change the Weather History Date:

Saturday, August 17, 2019

  Actual Average (KEWR) Record (KEWR)
Temperature  
Mean Temperature 80 °F -  
Max Temperature 88 °F 84 °F 97 °F (1987)
Min Temperature 73 °F 68 °F 55 °F (1979)
Cooling Degree Days 16    
Growing Degree Days 30 (Base 50)    
Moisture  
Dew Point 72 °F    
Average Humidity 83    
Maximum Humidity 94    
Minimum Humidity 61    
Precipitation  
Precipitation 0.00 in - - ()
Sea Level Pressure  
Sea Level Pressure 30.02 in    
Wind  
Wind Speed 5 mph (East)    
Max Wind Speed 9 mph    
Max Gust Speed -    
Visibility 10 miles    
Events Thunderstorm    
Averages and records for this station are not official NWS values.
T = Trace of Precipitation, MM = Missing Value Source: NWS Daily Summary

Daily Weather History Graph

Daily Weather History Graph

Search for Another Location

Airport or City:

Astronomy

Aug. 17, 2019 Rise Set
Actual Time 6:08 AM EDT 7:51 PM EDT
Civil Twilight 5:38 AM EDT 8:20 PM EDT
Nautical Twilight 5:03 AM EDT 8:55 PM EDT
Astronomical Twilight 4:25 AM EDT 9:33 PM EDT
Moon 9:17 PM EDT (8/17) 7:54 AM EDT (8/17)
Length of Visible Light 14h 41m
Length of Day
13h 43m
Waning Gibbous, 96% of the Moon is Illuminated
Aug 17
Waning Gibbous
Aug 23
Last Quarter
Aug 30
New
Sep 5
First Quarter
Sep 14
Full

Hourly Weather History & Observations

Time (EDT) Temp. Heat Index Dew Point Humidity Pressure Visibility Wind Dir Wind Speed Gust Speed Precip Events Conditions
12:12 AM 75.2 °F - 71.6 °F 89% 30.04 in 10.0 mi NE 5.8 mph - N/A   Overcast
12:56 AM 75.0 °F - 72.0 °F 90% 30.04 in 10.0 mi Variable 4.6 mph - N/A   Overcast
1:56 AM 75.0 °F - 72.0 °F 90% 30.04 in 10.0 mi ESE 5.8 mph - N/A   Overcast
2:12 AM 75.2 °F - 71.6 °F 89% 30.04 in 10.0 mi ESE 5.8 mph - N/A   Overcast
2:36 AM 75.2 °F - 71.6 °F 89% 30.04 in 10.0 mi Calm Calm - N/A   Overcast
2:56 AM 75.0 °F - 72.0 °F 90% 30.03 in 10.0 mi NE 4.6 mph - N/A   Overcast
3:56 AM 75.0 °F - 72.0 °F 90% 30.03 in 10.0 mi NE 5.8 mph - N/A   Overcast
4:05 AM 75.2 °F - 71.6 °F 89% 30.03 in 10.0 mi NE 3.5 mph - N/A   Overcast
4:56 AM 75.0 °F - 72.0 °F 90% 30.01 in 10.0 mi NNE 3.5 mph - N/A   Overcast
5:47 AM 75.2 °F - 71.6 °F 89% 30.02 in 10.0 mi NE 5.8 mph - N/A   Overcast
5:56 AM 75.0 °F - 72.0 °F 90% 30.03 in 10.0 mi NNE 5.8 mph - N/A   Overcast
6:39 AM 73.4 °F - 71.6 °F 94% 30.02 in 10.0 mi NNE 6.9 mph - N/A   Mostly Cloudy
6:56 AM 73.9 °F - 72.0 °F 93% 30.02 in 10.0 mi NE 6.9 mph - N/A   Mostly Cloudy
7:08 AM 73.4 °F - 71.6 °F 94% 30.02 in 10.0 mi NE 5.8 mph - N/A   Scattered Clouds
7:16 AM 73.4 °F - 71.6 °F 94% 30.02 in 10.0 mi East 4.6 mph - N/A   Mostly Cloudy
7:56 AM 75.0 °F - 72.0 °F 90% 30.02 in 10.0 mi ENE 5.8 mph - N/A   Overcast
8:23 AM 75.2 °F - 71.6 °F 89% 30.03 in 10.0 mi ENE 5.8 mph - N/A   Overcast
8:56 AM 75.9 °F - 72.0 °F 87% 30.03 in 9.0 mi ENE 6.9 mph - N/A   Overcast
9:10 AM 75.2 °F - 71.6 °F 89% 30.03 in 10.0 mi ENE 6.9 mph - N/A   Overcast
9:40 AM 78.8 °F - 71.6 °F 78% 30.04 in 10.0 mi ENE 6.9 mph - N/A   Mostly Cloudy
9:56 AM 79.0 °F - 72.0 °F 79% 30.03 in 10.0 mi NE 9.2 mph - N/A   Mostly Cloudy
10:02 AM 80.6 °F 84.6 °F 71.6 °F 74% 30.03 in 10.0 mi ENE 8.1 mph - N/A   Scattered Clouds
10:19 AM 80.6 °F 85.4 °F 73.4 °F 79% 30.03 in 10.0 mi NE 9.2 mph - N/A   Mostly Cloudy
10:28 AM 82.4 °F 87.2 °F 71.6 °F 70% 30.04 in 10.0 mi ENE 8.1 mph - N/A   Mostly Cloudy
10:56 AM 82.0 °F 86.7 °F 72.0 °F 71% 30.04 in 10.0 mi NE 5.8 mph - N/A   Mostly Cloudy
11:56 AM 84.9 °F 90.7 °F 72.0 °F 65% 30.04 in 10.0 mi Variable 5.8 mph - N/A   Clear
12:56 PM 84.0 °F 90.2 °F 73.0 °F 69% 30.02 in 8.0 mi West 5.8 mph - N/A   Scattered Clouds
1:56 PM 86.0 °F 93.0 °F 73.0 °F 65% 30.02 in 10.0 mi Variable 4.6 mph - N/A   Clear
2:56 PM 88.0 °F 95.6 °F 73.0 °F 61% 29.99 in 10.0 mi Variable 4.6 mph - N/A   Mostly Cloudy
3:56 PM 87.1 °F 94.5 °F 73.0 °F 63% 29.97 in 10.0 mi SSE 8.1 mph - N/A   Scattered Clouds
4:56 PM 86.0 °F 92.2 °F 72.0 °F 63% 29.96 in 10.0 mi SSE 5.8 mph - N/A   Clear
5:56 PM 82.9 °F 88.0 °F 72.0 °F 69% 29.96 in 10.0 mi SE 8.1 mph - N/A   Clear
6:56 PM 81.0 °F 85.2 °F 72.0 °F 74% 29.96 in 10.0 mi South 8.1 mph - N/A   Clear
7:56 PM 78.1 °F - 73.0 °F 84% 29.98 in 10.0 mi SSE 4.6 mph - N/A   Partly Cloudy
8:56 PM 77.0 °F - 73.0 °F 88% 29.99 in 10.0 mi South 3.5 mph - N/A   Scattered Clouds
9:56 PM 77.0 °F - 73.0 °F 88% 29.99 in 10.0 mi SSE 4.6 mph - N/A   Clear
10:56 PM 77.0 °F - 73.0 °F 88% 29.99 in 10.0 mi SSE 4.6 mph - N/A   Partly Cloudy
11:22 PM 75.2 °F - 73.4 °F 94% 30.00 in 10.0 mi South 3.5 mph - N/A Thunderstorm Mostly Cloudy
11:41 PM 77.0 °F - 73.4 °F 89% 29.99 in 10.0 mi Calm Calm - N/A   Overcast
11:56 PM 77.0 °F - 73.9 °F 90% 29.99 in 10.0 mi Calm Calm - N/A   Overcast